STARLINK-1680 (46558 NORAD) Tracking and Keplerian Element Data

This shows tracking and keplerian element data for the satellite.

Feedback or suggestion? Click here.




ElementValue
Catalog46558
NameSTARLINK-1680
Epoch Orbit999
Epoch Day339.00002315
Epoch Year2020
RAAN155.0412
Inclination52.9999
Eccentricity0.0002567
Argument of Perigee32.1878
Mean Anonmoly209.6497
Mean Motion15.62731193
Decay Rate0.0005032
L11 46558U 20070AC 20339.00002315 .00050320 00000-0 55240-3 0 9994
L22 46558 52.9999 155.0412 0002567 32.1878 209.6497 15.62731193 9992

Live tracking and technical data element details for STARLINK-1680 (NORAD 46558). STARLINK-1680 can be tracked NOW for your location showing map with azimuth and elevation plus other details from your city location.

Track the satellite on the map from your city or location and see movement details for azimuth, elevation, latitude, longitude, range, height, and movement on the map or in text.







IsCatalogInMostPopularTable: catalog: 46558, numindb: 16
Update: records affected: 1



GetName: 46558 STARLINK-1680

Hit Count: updated at: Sun, 06 Dec 2020 00:34:42 GMT